Weather History for KHEQ - April, 2014

Change the Weather History Date:

Saturday, April 5, 2014

  Actual Average Record
Temperature  
Mean Temperature 48 °F -  
Max Temperature 64 °F 61 °F 78 °F (2015)
Min Temperature 32 °F 30 °F 32 °F (2014)
Degree Days  
Heating Degree Days 17    
Moisture  
Dew Point 30 °F    
Average Humidity 56    
Maximum Humidity 87    
Minimum Humidity 24    
Precipitation  
Precipitation 0.00 in - - ()
Sea Level Pressure  
Sea Level Pressure 29.87 in    
Wind  
Wind Speed 7 mph (East)    
Max Wind Speed 18 mph    
Max Gust Speed 28 mph    
Visibility 10 miles    
Events Rain    
Averages and records for this station are not official NWS values.
T = Trace of Precipitation, MM = Missing Value Source: NWS Daily Summary

Daily Weather History Graph

Daily Weather History Graph

Search for Another Location

Airport or City:

Trip Planner

Search our weather history database for the weather conditions in past years. The results will help you decide how hot, cold, wet, or windy it might be!

Date:

Astronomy

Apr. 05, 2014 Rise Set
Actual Time 6:26 AM MDT 7:17 PM MDT
Civil Twilight 5:58 AM MDT 7:45 PM MDT
Nautical Twilight 5:25 AM MDT 8:18 PM MDT
Astronomical Twilight 4:51 AM MDT 8:53 PM MDT
Moon 10:34 AM MDT (4/5) 12:30 AM MDT (4/5)
Length of Visible Light 13h 47m
Length of Day
12h 51m
Waxing Crescent, 35% of the Moon is Illuminated
Apr 5
Waxing Crescent
Apr 7
First Quarter
Apr 15
Full
Apr 22
Last Quarter
Apr 29
New

Hourly Weather History & Observations

Time (MDT) Temp. Windchill Dew Point Humidity Pressure Visibility Wind Dir Wind Speed Gust Speed Precip Events Conditions
12:15 AM 37.4 °F 31.4 °F 30.2 °F 75% 29.95 in 10.0 mi SSE 8.1 mph - N/A   Clear
12:35 AM 35.6 °F 28.6 °F 30.2 °F 81% 29.95 in 10.0 mi South 9.2 mph - N/A   Clear
12:55 AM 35.6 °F 28.6 °F 30.2 °F 81% 29.95 in 10.0 mi South 9.2 mph - N/A   Clear
1:15 AM 35.6 °F 27.5 °F 30.2 °F 81% 29.95 in 10.0 mi South 11.5 mph - N/A   Clear
1:35 AM 37.4 °F 29.3 °F 32.0 °F 81% 29.94 in 10.0 mi South 12.7 mph - N/A   Clear
1:55 AM 37.4 °F 29.8 °F 32.0 °F 81% 29.94 in 10.0 mi South 11.5 mph - N/A   Clear
2:15 AM 37.4 °F 30.8 °F 32.0 °F 81% 29.94 in 10.0 mi SSE 9.2 mph - N/A   Clear
2:35 AM 37.4 °F 31.4 °F 32.0 °F 81% 29.93 in 10.0 mi South 8.1 mph - N/A   Clear
2:55 AM 37.4 °F 30.8 °F 32.0 °F 81% 29.92 in 10.0 mi SSE 9.2 mph - N/A   Scattered Clouds
3:15 AM 37.4 °F 32.1 °F 32.0 °F 81% 29.92 in 10.0 mi SSE 6.9 mph - N/A   Overcast
3:35 AM 35.6 °F 29.2 °F 30.2 °F 81% 29.92 in 10.0 mi SSE 8.1 mph - N/A   Scattered Clouds
3:55 AM 33.8 °F 28.6 °F 30.2 °F 87% 29.91 in 10.0 mi SE 5.8 mph - N/A   Clear
4:15 AM 33.8 °F 28.6 °F 28.4 °F 81% 29.91 in 10.0 mi SE 5.8 mph - N/A   Clear
4:35 AM 33.8 °F 27.7 °F 28.4 °F 81% 29.90 in 10.0 mi SE 6.9 mph - N/A   Scattered Clouds
4:55 AM 33.8 °F 27.0 °F 30.2 °F 87% 29.89 in 10.0 mi SSE 8.1 mph - N/A   Mostly Cloudy
5:15 AM 33.8 °F 26.4 °F 30.2 °F 87% 29.89 in 10.0 mi SSE 9.2 mph - N/A   Mostly Cloudy
5:35 AM 33.8 °F 27.7 °F 30.2 °F 87% 29.89 in 10.0 mi SSE 6.9 mph - N/A   Mostly Cloudy
5:55 AM 33.8 °F 28.6 °F 30.2 °F 87% 29.89 in 10.0 mi SSE 5.8 mph - N/A   Scattered Clouds
6:15 AM 32.0 °F 26.4 °F 28.4 °F 87% 29.88 in 10.0 mi SE 5.8 mph - N/A   Scattered Clouds
6:35 AM 33.8 °F 29.6 °F 30.2 °F 87% 29.89 in 10.0 mi SE 4.6 mph - N/A   Mostly Cloudy
6:55 AM 33.8 °F 30.8 °F 30.2 °F 87% 29.89 in 10.0 mi SE 3.5 mph - N/A   Overcast
7:15 AM 33.8 °F - 30.2 °F 87% 29.89 in 10.0 mi Calm Calm - N/A   Overcast
7:35 AM 35.6 °F 32.8 °F 30.2 °F 81% 29.90 in 10.0 mi SSE 3.5 mph - N/A   Mostly Cloudy
7:55 AM 37.4 °F - 32.0 °F 81% 29.90 in 10.0 mi Calm Calm - N/A   Scattered Clouds
8:15 AM 37.4 °F - 32.0 °F 81% 29.89 in 10.0 mi Calm Calm - N/A   Scattered Clouds
8:35 AM 41.0 °F - 32.0 °F 70% 29.89 in 10.0 mi Calm Calm - N/A   Scattered Clouds
8:55 AM 41.0 °F - 30.2 °F 65% 29.89 in 10.0 mi Calm Calm - N/A   Unknown
9:15 AM 42.8 °F - 32.0 °F 66% 29.89 in 10.0 mi Calm Calm - N/A   Unknown
9:35 AM 46.4 °F 45.2 °F 32.0 °F 57% 29.89 in 10.0 mi NNW 3.5 mph - N/A   Unknown
9:55 AM 51.8 °F - 33.8 °F 50% 29.88 in 10.0 mi NNW 4.6 mph - N/A   Unknown
10:15 AM 53.6 °F - 33.8 °F 47% 29.89 in 10.0 mi Calm Calm - N/A   Unknown
10:35 AM 53.6 °F - 32.0 °F 44% 29.88 in 10.0 mi NE 4.6 mph - N/A   Unknown
10:55 AM 55.4 °F - 32.0 °F 41% 29.88 in 10.0 mi ENE 6.9 mph - N/A   Unknown
11:15 AM 59.0 °F - 33.8 °F 39% 29.87 in 10.0 mi NE 8.1 mph - N/A   Unknown
11:35 AM 59.0 °F - 32.0 °F 36% 29.87 in 10.0 mi NE 3.5 mph - N/A   Unknown
11:55 AM 60.8 °F - 32.0 °F 34% 29.87 in 10.0 mi East 6.9 mph - N/A   Unknown
12:15 PM 60.8 °F - 30.2 °F 31% 29.86 in 10.0 mi ENE 6.9 mph - N/A   Unknown
12:35 PM 60.8 °F - 30.2 °F 31% 29.86 in 10.0 mi ENE 4.6 mph - N/A   Unknown
12:55 PM 62.6 °F - 32.0 °F 32% 29.85 in 10.0 mi East 10.4 mph - N/A   Unknown
1:15 PM 62.6 °F - 30.2 °F 30% 29.85 in 10.0 mi East 10.4 mph - N/A   Unknown
1:35 PM 62.6 °F - 28.4 °F 27% 29.84 in 10.0 mi ESE 6.9 mph - N/A   Unknown
1:55 PM 62.6 °F - 28.4 °F 27% 29.83 in 10.0 mi ENE 9.2 mph - N/A   Unknown
2:15 PM 62.6 °F - 26.6 °F 26% 29.82 in 10.0 mi SE 9.2 mph 19.6 mph N/A   Unknown
2:35 PM 64.4 °F - 26.6 °F 24% 29.82 in 10.0 mi ESE 5.8 mph - N/A   Unknown
2:55 PM 62.6 °F - 26.6 °F 26% 29.81 in 10.0 mi ESE 4.6 mph - N/A   Unknown
3:15 PM 59.0 °F - 30.2 °F 34% 29.82 in 10.0 mi North 18.4 mph 27.6 mph N/A Rain Rain
3:35 PM 62.6 °F - 28.4 °F 27% 29.81 in 10.0 mi East 3.5 mph - N/A   Unknown
3:55 PM 62.6 °F - 26.6 °F 26% 29.81 in 10.0 mi North 10.4 mph 17.3 mph N/A   Unknown
4:15 PM 64.4 °F - 26.6 °F 24% 29.81 in 10.0 mi NNE 9.2 mph - N/A   Unknown
4:35 PM 62.6 °F - 26.6 °F 26% 29.81 in 10.0 mi North 6.9 mph - N/A   Unknown
4:55 PM 62.6 °F - 26.6 °F 26% 29.81 in 10.0 mi NE 6.9 mph - N/A   Unknown
5:15 PM 60.8 °F - 26.6 °F 27% 29.81 in 10.0 mi Calm Calm - N/A   Unknown
5:35 PM 62.6 °F - 26.6 °F 26% 29.81 in 10.0 mi Calm Calm - N/A   Unknown
5:55 PM 62.6 °F - 26.6 °F 26% 29.81 in 10.0 mi Calm Calm - N/A   Unknown
6:15 PM 62.6 °F - 24.8 °F 24% 29.81 in 10.0 mi Calm Calm - N/A   Unknown
6:35 PM 60.8 °F - 26.6 °F 27% 29.82 in 10.0 mi NNW 3.5 mph - N/A   Unknown
6:55 PM 59.0 °F - 26.6 °F 29% 29.82 in 10.0 mi NNW 3.5 mph - N/A   Unknown
7:15 PM 59.0 °F - 24.8 °F 27% 29.82 in 10.0 mi NNW 3.5 mph - N/A   Unknown
7:35 PM 53.6 °F - 30.2 °F 41% 29.82 in 10.0 mi North 5.8 mph - N/A   Unknown
7:55 PM 50.0 °F - 32.0 °F 50% 29.82 in 10.0 mi North 5.8 mph - N/A   Unknown
8:15 PM 46.4 °F 43.5 °F 32.0 °F 57% 29.83 in 10.0 mi NNW 5.8 mph - N/A   Unknown
8:35 PM 46.4 °F 45.2 °F 32.0 °F 57% 29.84 in 10.0 mi North 3.5 mph - N/A   Unknown
8:55 PM 42.8 °F 38.6 °F 30.2 °F 61% 29.85 in 10.0 mi North 6.9 mph - N/A   Unknown
9:15 PM 46.4 °F 41.9 °F 30.2 °F 53% 29.85 in 10.0 mi ESE 9.2 mph - N/A   Unknown
9:35 PM 46.4 °F 44.3 °F 30.2 °F 53% 29.85 in 10.0 mi NNE 4.6 mph - N/A   Unknown
9:55 PM 44.6 °F 41.4 °F 32.0 °F 61% 29.85 in 10.0 mi North 5.8 mph - N/A   Unknown
10:15 PM 44.6 °F 41.4 °F 32.0 °F 61% 29.86 in 10.0 mi NW 5.8 mph - N/A   Unknown
10:35 PM 44.6 °F 40.2 °F 30.2 °F 57% 29.86 in 10.0 mi NNW 8.1 mph - N/A   Unknown
10:55 PM 44.6 °F 39.7 °F 30.2 °F 57% 29.85 in 10.0 mi North 9.2 mph - N/A   Unknown
11:15 PM 42.8 °F 38.6 °F 30.2 °F 61% 29.85 in 10.0 mi NNW 6.9 mph - N/A   Unknown
11:35 PM 44.6 °F 39.2 °F 30.2 °F 57% 29.85 in 10.0 mi NNW 10.4 mph - N/A   Unknown
11:55 PM 42.8 °F 38.0 °F 30.2 °F 61% 29.85 in 10.0 mi NNW 8.1 mph - N/A   Unknown